Home   Weather   Wesseling   Past weeks

Flag for Germany Past Weather in Wesseling, North Rhine-Westphalia, Germany — Yesterday and Last 2 Weeks

Now
37 °F

Fog.


Feels Like: 37 °F
Forecast: 28 / 40 °F
Wind: 2 mph from North

Location: Koeln / Bonn

Current Time: Dec 2, 2016 at 9:03:55 pm

Latest Report: Dec 2, 2016 at 8:20 pm


Visibility: N/A

Pressure: 30.24 "Hg

Humidity: 93%

Dew Point: 36 °F

Location of WesselingLocation

Past Weather in Wesseling — Graph

°F

Wesseling Temperature Yesterday

Maximum temperature yesterday: 43 °F (at 11:50 am)
Minimum temperature yesterday: 39 °F (at 12:20 am)
Average temperature yesterday: 41 °F

High & Low Weather Summary for the Past Weeks

 TemperatureHumidityPressure
High61 °F (Nov 24, 1:20 pm)100% (Nov 23, 12:20 am)30.57 "Hg (Nov 23, 12:20 am)
Low18 °F (Nov 30, 6:50 am)44% (Nov 25, 3:20 pm)29.39 "Hg (Nov 18, 3:50 am)
Average43 °F81%30.03 "Hg
* Reported Nov 17 7:20 pm — Dec 2 7:50 pm, Wesseling, Weather by CustomWeather, © 2016

Note: Actual official high and low records may vary slightly from our data, if they occured in-between our weather recording intervals... More about our weather records

Advertising

Wesseling Weather History for the Previous 24 Hours

Scroll right to see more
 ConditionsComfort  
Time TempWeatherWind HumidityBarometerVisibility
7:50 pm
Fri, Dec 2
37 °FChilly.5 mph100%30.24 "HgN/A
7:20 pm37 °FFog.5 mph100%30.21 "HgN/A
6:50 pm37 °FChilly.5 mph100%30.21 "HgN/A
6:20 pm39 °FChilly.3 mph100%30.21 "HgN/A
5:50 pm39 °FFog.2 mph100%30.21 "HgN/A
5:20 pm41 °FFog.3 mph100%30.21 "HgN/A
4:50 pm43 °FFog.3 mph93%30.21 "HgN/A
4:20 pm45 °FPartly sunny.2 mph93%30.21 "HgN/A
3:50 pm45 °FPartly sunny.1 mph93%30.21 "HgN/A
3:20 pm45 °FPartly sunny.3 mph93%30.18 "HgN/A
2:50 pm46 °FBroken clouds.2 mph87%30.18 "HgN/A
2:20 pm45 °FLight rain. Partly sunny.2 mph93%30.18 "HgN/A
1:50 pm46 °FLight rain. Partly sunny.7 mph87%30.18 "HgN/A
1:20 pm46 °FLight rain. Broken clouds.9 mph93%30.18 "Hg5 mi
12:50 pm46 °FDrizzle. Partly sunny.8 mph93%30.18 "Hg4 mi
12:20 pm46 °FDrizzle. Partly sunny.9 mph93%30.18 "Hg4 mi
11:50 am46 °FDrizzle. Partly sunny.9 mph93%30.18 "Hg3 mi
11:20 am45 °FPartly sunny.10 mph100%30.18 "Hg4 mi
10:50 am45 °FDrizzle. Partly sunny.13 mph100%30.18 "Hg4 mi
10:20 am46 °FPartly sunny.12 mph87%30.18 "HgN/A
9:50 am45 °FPartly sunny.12 mph93%30.18 "HgN/A
9:20 am45 °FPartly sunny.12 mph93%30.18 "HgN/A
8:50 am45 °FDrizzle. Broken clouds.10 mph93%30.18 "Hg6 mi
8:20 am45 °FDrizzle. Partly sunny.9 mph93%30.18 "Hg6 mi
7:50 am45 °FPassing clouds.14 mph93%30.18 "Hg5 mi
7:20 am45 °FPassing clouds.12 mph93%30.18 "Hg6 mi
6:50 am45 °FPassing clouds.8 mph93%30.18 "Hg6 mi
6:20 am45 °FPassing clouds.10 mph93%30.18 "Hg5 mi
5:50 am45 °FDrizzle. Fog.10 mph93%30.15 "Hg3 mi
5:20 am45 °FDrizzle. Fog.10 mph93%30.18 "Hg2 mi
4:50 am45 °FDrizzle. Fog.10 mph93%30.18 "Hg3 mi
4:20 am45 °FDrizzle. Fog.12 mph93%30.18 "Hg2 mi
3:50 am45 °FPassing clouds.13 mph93%30.18 "Hg4 mi
3:20 am45 °FFog.12 mph93%30.18 "Hg3 mi
2:50 am45 °FFog.13 mph93%30.18 "Hg2 mi
2:20 am45 °FFog.13 mph93%30.18 "Hg2 mi
1:50 am45 °FDrizzle. Fog.10 mph93%30.18 "Hg2 mi
1:20 am45 °FDrizzle. Fog.10 mph93%30.21 "Hg2 mi
12:50 am45 °FDrizzle. Fog.10 mph93%30.21 "Hg2 mi
12:20 am43 °FFog.9 mph100%30.21 "Hg3 mi
11:50 pm
Thu, Dec 1
43 °FDrizzle. Fog.7 mph100%30.21 "Hg2 mi
11:20 pm43 °FDrizzle. Fog.8 mph93%30.21 "Hg2 mi
10:50 pm43 °FDrizzle. Fog.9 mph93%30.21 "Hg3 mi
10:20 pm43 °FDrizzle. Low clouds.8 mph93%30.21 "Hg4 mi
9:50 pm43 °FDrizzle. Low clouds.8 mph93%30.24 "Hg4 mi
9:20 pm43 °FLow clouds.10 mph93%30.24 "Hg5 mi
Weather by CustomWeather, © 2016

See weather overviewHow to use our weather pages